Voltar ao catálogo

STARLINK-31527

AtivoComunicaçõesVLEO
NORAD 59018·PAYLOAD·🇺🇸 United States

Lançado Feb 23, 2024 de Vandenberg Space Force Base

Loading…

Próximas Passagens (próximas 24 horas)

TLE

AtualizadoSource: CelesTrak SupGP

Época: Sep 14, 2026, 21:17 UTC

1 59018C 24036W   26257.88729167  .00045048  00000+0  13312-2 0  2577
2 59018  53.1559 277.6161 0001293  87.5619 301.3274 15.34361473    12

Acompanhe STARLINK-31527 em tempo real com AllMySat

Download on the App Store